Location: Sobotiste
(48.7170°N, 17.4000°E)
Time: 05:40:19
(UTC+02:00)

METEOR M2 - Pass Details

Date: 16 March 2026
Orbit: 817 x 824 km, 98.5° (Epoch: 17 April)

Event Time Altitude Azimuth Distance (km) Brightness Sun altitude
Rises 05:18:19 0° 8° (N) 3,373 ? -8.0°
Reaches altitude 10° 05:20:50 10° 360° (N) 2,436 ? -7.6°
Maximum altitude 05:25:40 35° 296° (WNW) 1,308 ? -6.8°
Drops below altitude 10° 05:30:29 10° 232° (SW) 2,421 ? -6.0°
Sets 05:33:00 0° 224° (SW) 3,349 ? -5.6°
